www.pogodaiklimat.ru

Погода и климат >> Архив погоды >> Россия >> Чукотка >> 21 км


ПОГОДА на 21 км

  • Прогноз погоды на 21 км
  • Монитор погоды на 21 км

АРХИВ ПОГОДЫ на 21 км

Время (UTC), дата Ветер
(напр.,м/с)
 
Видим.   Явления Облачность Т
(С)
Тd
(С)
f
(%)
Тe
(С)
Тes
(С)
Комфортность P
(гПа)
Po
(гПа)
Тmin
(С)
Tmax
(С)
R
(мм)
R24
(мм)
S
(см)
12 13.05 С 2 н/о н/о -7.0 -11.6 70 -11 -11 1011.1 989.8
15 13.05 СВ 2 н/о н/о -8.7 -12.5 74 -13 -13 1013.1 991.6
18 13.05 С 4 н/о н/о -8.8 -11.8 79 -16 -16 1014.8 993.3
21 13.05 С 4 н/о н/о -7.7 -11.5 74 -14 -14 1016.1 994.7 -9.6
03 14.05 СЗ 8-10
{11}
н/о н/о -8.2 -10.9 81 -18 -18 1018.4 996.9
06 14.05 С 7
{11}
н/о н/о -9.0 -12.5 76 -18 -18 1019.7 998.1
09 14.05 С 6 н/о н/о -10.1 -13.0 79 -19 -19 1021.0 999.2 -7.2
12 14.05 С 5 н/о н/о -10.9 -12.9 85 -19 -19 1022.0 1000.2
15 14.05 С 5 н/о н/о -11.6 -13.1 89 -20 -20 1022.8 1000.9
21 14.05 С 1 н/о н/о -10.0 -12.5 82 -12 -12 1024.7 1002.9 -11.6
00 15.05 ЮЗ 3 н/о н/о -10.6 -13.3 80 -17 -17 1025.3 1003.4
03 15.05 ЮЗ 3 н/о н/о -11.1 -13.7 81 -17 -17 1025.5 1003.6
06 15.05 Ю 3 н/о н/о -11.2 -13.6 82 -17 -17 1025.6 1003.7
09 15.05 Ю 2 н/о н/о -12.4 -14.4 85 -17 -17 1025.9 1003.8 -10.0
12 15.05 Ю 2 н/о н/о -12.6 -14.1 89 -17 -17 1025.7 1003.6
15 15.05 Ю 1 н/о н/о -12.6 -14.0 89 -15 -15 1025.2 1003.2
18 15.05 СВ 2 н/о н/о -10.5 -13.0 82 -15 -15 1024.5 1002.6
21 15.05 Ю 2 н/о н/о -9.5 -13.1 75 -14 -14 1023.8 1002.0 -12.8
00 16.05 ЮЗ 2 н/о н/о -8.3 -12.2 73 -13 -13 1023.0 1001.3
03 16.05 С 2 н/о н/о -5.9 -11.0 67 -10 -10 1022.0 1000.6
06 16.05 ЮЗ 1 н/о н/о -6.6 -10.1 76 -9 -9 1021.2 999.7
09 16.05 Ю 2 н/о н/о -8.9 -11.2 83 -13 -13 1020.9 999.2 -4.8
12 16.05 Ю 3 н/о н/о -9.4 -11.4 85 -15 -15 1019.9 998.2
15 16.05 ЮВ 3 н/о н/о -8.9 -11.2 83 -15 -15 1018.8 997.2
18 16.05 ЮВ 4 н/о н/о -4.9 -9.7 69 -11 -11 1017.0 995.7
21 16.05 ЮВ 7 н/о н/о -3.3 -9.5 62 -11 -11 1015.5 994.4 -10.0
00 17.05 ЮВ 7
{10}
н/о н/о -1.4 -9.7 53 -8 -8 1014.2 993.3
03 17.05 ЮВ 8-10
{10}
н/о н/о -0.5 -8.9 53 -8 -8 1013.1 992.2
06 17.05 ЮВ 4
{10}
н/о н/о -0.5 -8.8 53 -5 -5 1012.4 991.6
09 17.05 В 5 н/о н/о -0.9 -7.6 60 -7 -7 1012.3 991.5 +0.2
12 17.05 В 5 н/о н/о -1.1 -8.1 59 -7 -7 1012.2 991.3
15 17.05 В 3 н/о н/о -2.2 -4.0 87 -7 -7 1012.6 991.7
18 17.05 С 3 н/о н/о -3.5 -4.5 93 -9 -9 1013.0 991.9
21 17.05 С 3 н/о н/о -3.5 -4.4 93 -9 -9 1013.8 992.8 -3.8
00 18.05 С 6 н/о н/о -4.3 -5.4 92 -12 -12 1014.8 993.6 -4.5
03 18.05 С 9-10
{11}
н/о н/о -4.7 -6.0 91 -14 -14 1015.4 994.2
06 18.05 С 9-10
{12}
н/о н/о -6.3 -7.3 93 -16 -16 1016.5 995.1
09 18.05 С 7
{11}
н/о н/о -6.5 -7.4 93 -15 -15 1017.2 995.8 -2.8
12 18.05 СЗ 6 н/о н/о -8.0 -9.0 92 -16 -16 1018.1 996.6
15 18.05 С 6 н/о н/о -9.9 -11.1 91 -18 -18 1018.9 997.2
18 18.05 СЗ 7 н/о н/о -11.6 -12.9 90 -21 -21 1019.7 997.8
21 18.05 СЗ 6 н/о н/о -10.1 -11.4 90 -19 -19 1020.4 998.6 -11.7
00 19.05 С 6 н/о н/о -8.9 -10.1 91 -17 -17 1020.3 998.7
03 19.05 С 5 н/о н/о -9.4 -10.6 91 -17 -17 1020.5 998.8
06 19.05 С 3 н/о н/о -10.6 -12.1 89 -17 -17 1020.3 998.5

 

Местоположение метеостанции 21 км (Чукотка, Россия): широта 69.63 долгота 170.83 высота над уровнем моря 165 м.

В архиве по умолчанию представлена погода на 21 км за последнюю неделю. Архивные данные за месяц целиком и за предыдущие месяцы, начиная с января 2011 года, Вы можете получить, выбрав интересующий диапазон дат из раскрывающегося списка и нажав кнопку "Ввод!".


*Определитесь, кто Вы:
робот инопланетянин человек

Внимание! Время в таблицах - всемирное. Для получения местного времени необходимо прибавить поправку, которая равна 12 ч.

Смотрите также архив погоды в соседних городах и на ближайших метеорологических станциях:

Погода в Певеке (Чукотка, Россия) (26 км)
Погода в Валькаркае (Чукотка, Россия) (50 км)
Погода в Чауне (Чукотка, Россия) (84 км)
Погода в Комсомольской (Чукотка, Россия) (96 км)
Погода на Айон Острове (Чукотка, Россия) (117 км)
Погода в Паляваам-Глубокой (Чукотка, Россия) (139 км)
Погода в Майской (Чукотка, Россия) (158 км)
Погода в Раучуе (Чукотка, Россия) (169 км)
Погода на Мысе Биллингс (Чукотка, Россия) (189 км)
Погода в Билибино (Чукотка, Россия) (250 км)

Пояснения к столбцам:

Ветер - указаны скорость ветра в м/с - средняя за 10 мин, порывы в срок и между сроками (в фигурных скобках) и направление, откуда дует ветер: С - северный, СВ - северо-восточный, В - восточный, ЮВ - юго-восточный, Ю - южный, ЮЗ - юго-западный, З - западный, СЗ - северо-западный.
Видимость - горизонтальная дальность видимости в метрах или километрах. При видимости от 1 до 10 км при отсутствии осадков обычно наблюдается дымка, при ухудшении видимости до 1 км и менее - туман. В сухую погоду видимость может ухудшаться дымом, пылью или мглою.
Явления - указаны атмосферные явления, наблюдавшиеся в срок или в последний час перед сроком; фигурными скобками обозначены явления, наблюдавшиеся между сроками (за 1-3 часа до срока); квадратными скобками обозначены град или гололедные отложения с указанием их диаметра в мм.
Облачность - указаны через наклонную черту общая и нижняя облачность в баллах и высота нижней границы облаков в метрах; квадратными скобками обозначены формы облаков: Ci - перистые, Cs - перисто-слоистые, Cc - перисто-кучевые, Ac - высококучевые, As - высокослоистые, Sc - слоисто-кучевые, Ns - слоисто-дождевые, Cu - кучевые, Cb - кучево-дождевые. Подробнее классификацию облаков см. в Атласе облаков (PDF).
T - Температура воздуха - температура, измеренная на высоте 2 м над землей.
Td - Температура точки росы - температура, при понижении до которой содержащийся в воздухе водяной пар достигнет насыщения.
f - Относительная влажность воздуха - влажноcть воздуха, измеренная на высоте 2 м над землей.
Te - Эффективная температура - температура, которую ощущает одетый по сезону человек в тени. Характеристика душности погоды. При расчете учитывается влияние влажности воздуха и скорости ветра на теплоощущения человека.
Tes - Эффективная температура на солнце - температура, которую ощущает человек, с поправкой на солнечный нагрев. Характеристика знойности погоды. Зависит от высоты солнца над горизонтом, облачности и скорости ветра. Ночью, в пасмурную погоду, а также при ветре 12 м/с и более поправка равна нулю.
P - Атмосферное давление - приведенное к уровню моря атмосферное давление.
Po - Атмосферное давление - измеренное на уровне метеостанции атмосферное давление.
Tmin - Минимальная температура - минимум температуры воздуха на высоте 2 м над землей.
Tmax - Максимальная температура - максимум температуры воздуха на высоте 2 м над землей.
R - Количество осадков - Количество выпавших осадков за период времени, мм. При наведении курсора мыши на число - период времени, за который выпало указанное количество осадков.
R24 - Количество осадков - Количество выпавших осадков за 24 часа, мм.
S - Снежный покров - Высота снежного покрова, см. При наведении курсора мыши на число - состояние снежного покрова и степень покрытия местности в баллах.